Regional Weather Roundup
Issued by NWS

Home | Current Version | Previous Version | Text Only | Print | Product List | Glossary Off
Versions: 1 2 3 4 5 6 7 8 9 10 11 12 13 14 15 16 17 18 19 20 21 22 23 24 25 26 27 28 29 30 31 32 33 34 35 36 37 38 39 40 41 42 43 44 45 46 47 48 49 50

000
ASUS43 KLOT 310521
RWRIL

ILLINOIS REGIONAL WEATHER ROUNDUP
NATIONAL WEATHER SERVICE CHICAGO/ROMEOVILLE IL
1200 AM CDT FRI JUL 31 2015

NOTE: "FAIR" INDICATES FEW OR NO CLOUDS BELOW 12,000 FEET WITH NO
SIGNIFICANT WEATHER AND/OR OBSTRUCTIONS TO VISIBILITY.

* THESE STATIONS ARE NOT UNDER NWS QUALITY CONTROL. THEY ALSO MAY NOT
  REPORT WEATHER SUCH AS PRECIPITATION OR FOG.

ILZ001-002-007-009-015-016-024-310600-
NORTHWEST ILLINOIS

CITY           SKY/WX    TMP DP  RH WIND       PRES   REMARKS
MOLINE         CLEAR     70  65  84 CALM      30.07S
STERLING*      CLEAR     68  63  83 W5        30.03S
SAVANNA*       CLEAR     65  61  87 CALM      30.05F
$$

ILZ003-004-008-010-011-017-018-310600-
NORTH CENTRAL ILLINOIS

CITY           SKY/WX    TMP DP  RH WIND       PRES   REMARKS
ROCKFORD       CLEAR     71  58  63 W6        30.05S
FREEPORT*      CLEAR     66  59  77 W6        30.07S
ROCHELLE*      CLEAR     66  62  85 W7        30.06S
DE KALB*       CLEAR     72  60  66 W10       30.06S
PERU*          CLEAR     70  65  86 W7        30.06S
$$

ILZ005-006-012>014-019>023-310600-
NORTHEAST ILLINOIS

CITY           SKY/WX    TMP DP  RH WIND       PRES   REMARKS
CHICAGO-OHARE  CLEAR     75  59  57 W10       30.02R
CHICAGO-MIDWAY CLEAR     78  59  51 W9        30.02R
AURORA         CLEAR     66  61  84 W3        30.05R
LANSING*       CLEAR     70  61  73 W5        30.02S
JOLIET*        CLEAR     73  66  78 W3        30.03S
WAUKEGAN       CLEAR     71  58  63 VRB3      30.00S
DUPAGE AIRPORT CLEAR     73  59  61 NW9       30.03R
KANKAKEE*      CLEAR     72  67  83 W6        30.04F
WHEELING       CLEAR     76  57  51 NW9       30.03R
MORRIS*        CLEAR     68  64  87 W7        30.03S
ROMEOVILLE*    CLEAR     69  63  79 W6        30.04R
NORTHERLY ISL    N/A     78  58  49 NW5         N/A
$$

LMZ740>746-310600-
SOUTHERN LAKE MICHIGAN

STATION/POSITION SKY/WX   TEMP    WIND        PRES    VSBY  WAVE
                          AIR SEA DIR/SP/G                  HT/PER
                          (F)     (DEG/KT/KT) (MB)    (MI)  (FT/S)
HARRISON CRIB              78     280/ 15/ 18   N/A
BURNHAM HARBOR             78     300/  5/ 11   N/A
CALUMET HARBOR             79     250/  4/  7   N/A
BURNS HARBOR               78     240/ 10/ 12 1016.6S
MICHIGAN CITY              76     220/ 12/ 14   N/A
MICHIGAN CITY 6N           76 75  260/ 10/ 12   N/A           1/ 3
ST. JOSEPH                 75 74  280/  8/ 10   N/A           1/ 3
$$

ILZ025>027-034>036-040-047-049-050-058-095>099-310600-
WEST-CENTRAL ILLINOIS

CITY           SKY/WX    TMP DP  RH WIND       PRES   REMARKS
QUINCY         CLEAR     71  65  81 W6        30.12R
GALESBURG*     CLEAR     69  64  83 W3        30.09S
MACOMB*        CLEAR     67  66  96 W5        30.11F
JACKSONVILLE*  CLEAR     71  67  88 SW3       30.11R
PITTSFIELD*    CLEAR     74  65  73 W5        30.13S
$$

ILZ028>032-037-038-041>044-048-051>054-059>061-310600-
CENTRAL ILLINOIS

CITY           SKY/WX    TMP DP  RH WIND       PRES   REMARKS
PONTIAC        CLEAR     71  68  91 W3        30.06S
BLOOMINGTON    CLEAR     73  66  78 W7        30.09S
DECATUR        CLEAR     76  64  66 W7        30.09S
PEORIA         CLEAR     76  65  68 W5        30.08S
LACON*         CLEAR     71  65  84 CALM      30.06S
LINCOLN*       CLEAR     76  65  68 W3        30.08S
SPRINGFIELD    CLEAR     69  65  86 W7        30.10S
TAYLORVILLE    CLEAR     68  64  88 W6        30.10S
$$

ILZ033-039-045-046-055>057-062-063-310600-
EAST-CENTRAL ILLINOIS

CITY           SKY/WX    TMP DP  RH WIND       PRES   REMARKS
CHAMPAIGN      CLEAR     68  64  87 W3        30.08S
DANVILLE*      CLEAR     65  64  97 SW3       30.05S
RANTOUL*       CLEAR     71  67  87 W3        30.07F
MATTOON        CLEAR     72  63  73 W6        30.08S
PARIS*         CLEAR     65  64  96 SW3       30.09S
$$

ILZ079-100>102-310600-
SOUTHWEST ILLINOIS

CITY           SKY/WX    TMP DP  RH WIND       PRES   REMARKS
ALTON          CLEAR     69  65  86 CALM      30.11S
BELLEVILLE     CLEAR     70  70  99 CALM      30.10S
CAHOKIA*       CLEAR     71  66  84 CALM      30.11S
SPARTA*        CLEAR     73  66  78 CALM      30.12S
$$

ILZ064>066-069>071-074>076-080>082-084>086-088>090-092>094-310600-
SOUTH-CENTRAL ILLINOIS

CITY           SKY/WX    TMP DP  RH WIND       PRES   REMARKS
CARBONDALE     CLEAR     70  67  90 CALM      30.11S
CAIRO*         CLEAR     69  69 100 CALM      30.10S
EFFINGHAM*     CLEAR     71  63  75 W3        30.11S
MARION         CLEAR     70  66  88 CALM      30.12S
MT. VERNON     CLEAR     66  61  82 CALM      30.11F
CENTRALIA*     CLEAR     66  64  90 CALM      30.11S
SALEM*         CLEAR     69  65  88 CALM      30.11S
METROPOLIS*    CLEAR     69  69 100 CALM      30.11S
$$

ILZ067-068-072-073-078-083-087-091-310600-
SOUTHEAST ILLINOIS

CITY           SKY/WX    TMP DP  RH WIND       PRES   REMARKS
LAWRENCEVILLE  CLEAR     71  66  84 NW6       30.09R
FLORA*         CLEAR     75  64  69 W8        30.10S
FAIRFIELD*     CLEAR     71  65  82 CALM      30.09S
HARRISBURG*    CLEAR     69  68  97 CALM      30.12S
ROBINSON*      CLEAR     67  65  94 CALM      30.09S
CARMI*         CLEAR     69  62  79 CALM      30.09S
$$

ABBREVIATIONS USED IN REMARKS
   TC - TEMPERATURE IN CELSIUS
  WCI - WIND CHILL INDEX
   HX - HEAT INDEX
  VSB - VISIBILITY
$$



USA.gov is the U.S. government's official web portal to all federal, state and local government web resources and services.